Showing default

USA 271, 41745

Orbit data source: Space-Track

USA 271, 41745 is a payload satellite owned by USAF AFSPC (US) in GEO that was launched on Fri, 19 Aug 2016 UTC via a DELTA 4M+(4,2) launch vehicle from the Air Force Eastern Test Range (AFETR). Payload-class satellites include a variety of spacecraft equipped with specific instruments for various scientific and technological missions. These include communications satellites like Starlink; space stations such as the ISS; scientific satellites like the Hubble; Earth observation satellites from companies like Planet Labs, Umbra, and HawkEye 360; GPS; miniature CubeSats for education and research; and military/defense satellites.

Not visible in the next 10 days
Identifier
41745, 2016-052B
Orbit
GEO
Country
Flag of USUS
Related business
Manufacturer
OATK SSG
Mission
Operational Defense Classified
Bus & Motor
GEOSTAR-1, AOCS
Mass
500 kg wet, 500 kg dry
Launch date (UTC)
2016-08-19 (10 years ago)
Launch vehicle
DELTA 4M+(4,2)
Launch site
Air Force Eastern Test Range (AFETR)
Object type
Payload
Rocket body
Debris
Shape & HBR
Box + 2 Pan, 2.5 m
Radar Cross Section
7.621 m²

Expand to show TLE details & history
Last TLE update: 3 days ago

TLE from 3 days ago
0 USA 271
1 41745U 16052B   26252.02985785  .00000045  00000-0  00000+0 0  9994
2 41745   4.3795  76.1483 0002496 170.3995 185.5781  0.99058793 28752
Epoch: 2026-09-09T00:42Z
TLE epoch observation values (Epoch: 2026-09-09T00:42:59.718Z)
Latitude
-0.33356°
Longitude
73.2966°
Altitude
36,140.155 km
Speed
3.062 km/s
True Right ascension
04h 48m 31s
True Declination
0° 19' 60"
Sunlit
Object was in daylight at epoch
Visualization orbit readout
Latitude
Unknown
Longitude
Unknown
Altitude
Unknown
Speed
Unknown
Apparent Right ascension
Unknown
Apparent Declination
Unknown
Sunlit
N/A
Visualization observer readout
Local Sidereal Time
13:42:20
Azimuth
Unknown
Elevation
Unknown
Doppler factor
Unknown
Orbital elements
Apogee altitude
36,141.769 km
Perigee altitude
36,120.549 km
Semi-major axis
42,509.296 km
Eccentricity
0.00025
Inclination
4.3795°
RAAN
76.1483°
Arg. of periapsis
170.3995°
True anomaly
185.57532°
Mean anomaly
185.5781°
Eccentric anomaly
185.57671°
Mean motion
0.24764 °/min
Orbital period
1,453.73 mins
BSTAR
0
Loading maneuver chart data...
Computing Atmospheric mass density...
Loading historical data...
Loading historical data...
Loading historical data...
Loading historical data...
Loading historical data...
Loading historical data...
Loading historical data...
Other satellites on launch #52 in the year 2016 (2016-08-19 UTC)

Documentation

Showing up to 5 results
|